星链-32700 (STARLINK-32700)

导读 | 豆包AI

STARLINK-32700是美国SpaceX公司星链(Starlink)项目的卫星,于2024年12月13日发射升空。星链项目旨在构建全球卫星互联网星座,为全球偏远、基础设施缺乏地区提供低延迟、高速宽带互联网服务。该卫星被部署在近地轨道,属于星链星座的一员,助力拓展全球网络覆盖范围,推动太空互联网基础设施的持续完善,目前星链已在全球六十多个国家和地区提供服务。

Basic Information
目录编号:
62311
目录名称:
STARLINK-32700
国际标识:
2024-239L
轨道中心:
EARTH
卫星名称:
星链-32700
卫星全名:
星链-32700 (STARLINK-32700)
卫星状态:
在轨 (已飞行503 天)
发射日期:
2024-12-13 UTC
国别 :
美国 (US)
星等 :
--
Orbit Information
数据来源 国际轨道数据 AOE轨道数据
星历时间 2026-04-30T02:34:44+0800
5小时前
查看轨道信息
2026-04-26T17:00:00+0800
3天前
查看轨道信息
半长轴 6853.331km 6853.436km
偏心率 0.0001262 0.0001474
轨道倾角 53.160° 53.153°
近地点辐角 109.684° 50.128°
升交点赤经 303.963° 319.752°
平近点角 250.430° 294.793°
近地点 474.329km 474.288km
远地点 476.059km 476.31km
周期 94.105分钟 94.107分钟
每日圈数 15.302072 15.301719
Detailed Information
固有亮度:
5
最大亮度:
2.5
卫星平台:
Starlink V1.0
覆盖范围:
全球
运营商:
太空探索技术公司
运营商所在国:
美国
制造商(研发单位):
太空探索技术公司
制造商所在国:
美国
使用方式:
暂无
Satellite Introduction
Starlink 计划是 SpaceX 推出的全球卫星互联网项目,通过发射低轨道卫星,为全球尤其是偏远地区提供高速、低延迟的互联网服务。自 2019 年起,Starlink 已部署数千颗卫星,旨在缩小全球数字鸿沟,推动互联网普及。该项目还为军事、航空等行业提供通信支持,带来广泛经济效益。
2D Orbit Map
3D Orbit Map
Orbit Altitude Analysis Chart
Orbit Inclination Analysis Chart
Orbit Comprehensive Analysis Chart
View Comprehensive Chart